Information on these data can be found in provided Readme document
Contact Info: Zachary Fasnacht (zachary.fasnacht@ssaihq.com); Nickolay Krotkov (nickolay.a.krotkov@nasa.gov); Lok Lamsal (lok.lamsal@nasa.gov)

FillValue: -999.
ScaleFactor: 1e15
Units: molecules/cm^2

Date(yyyy-mm-dd),City,Country,LonCenter,LatCenter,BoundingCoordinates,Median,Q1,Q3,Mean,Baseline_Median,Baseline_Q1,Baseline_Q3,Baseline_Mean,NumGoodSamples,NumTotalSamples
2015-01-01,Guadalajara,Mexico,-103.35,20.6667,[-103.85 20.1667 -102.85 21.1667],1.668,0.936,2.633,2.199,1.589,0.886,2.552,1.886,123.0,543.0
2015-01-02,Guadalajara,Mexico,-103.35,20.6667,[-103.85 20.1667 -102.85 21.1667],1.563,0.936,2.564,2.119,1.657,0.97,2.586,1.93,136.0,525.0
2015-01-03,Guadalajara,Mexico,-103.35,20.6667,[-103.85 20.1667 -102.85 21.1667],1.342,0.797,2.619,2.154,1.656,0.949,2.644,1.959,120.0,543.0
2015-01-04,Guadalajara,Mexico,-103.35,20.6667,[-103.85 20.1667 -102.85 21.1667],1.276,0.773,2.278,1.817,1.635,0.888,2.575,1.911,147.0,521.0
2015-01-05,Guadalajara,Mexico,-103.35,20.6667,[-103.85 20.1667 -102.85 21.1667],1.342,0.797,2.312,1.875,1.679,0.908,2.563,1.965,141.0,551.0
2015-01-06,Guadalajara,Mexico,-103.35,20.6667,[-103.85 20.1667 -102.85 21.1667],1.344,0.797,2.344,1.787,1.639,0.923,2.607,1.976,121.0,531.0
2015-01-07,Guadalajara,Mexico,-103.35,20.6667,[-103.85 20.1667 -102.85 21.1667],1.344,0.797,2.443,1.921,1.691,0.956,2.618,2.003,151.0,541.0
2015-01-08,Guadalajara,Mexico,-103.35,20.6667,[-103.85 20.1667 -102.85 21.1667],1.344,0.797,2.443,1.828,1.732,1.002,2.642,2.028,131.0,544.0
2015-01-09,Guadalajara,Mexico,-103.35,20.6667,[-103.85 20.1667 -102.85 21.1667],1.344,0.797,2.443,1.828,1.715,0.966,2.695,2.042,131.0,501.0
2015-01-10,Guadalajara,Mexico,-103.35,20.6667,[-103.85 20.1667 -102.85 21.1667],1.344,0.797,2.443,1.836,1.729,0.983,2.701,2.072,127.0,522.0
2015-01-11,Guadalajara,Mexico,-103.35,20.6667,[-103.85 20.1667 -102.85 21.1667],1.344,0.83,2.443,1.87,1.722,0.939,2.769,2.09,146.0,491.0
2015-01-12,Guadalajara,Mexico,-103.35,20.6667,[-103.85 20.1667 -102.85 21.1667],1.344,0.83,2.443,1.87,1.788,0.973,2.783,2.106,146.0,512.0
2015-01-13,Guadalajara,Mexico,-103.35,20.6667,[-103.85 20.1667 -102.85 21.1667],1.493,0.859,2.619,1.99,1.785,1.007,2.79,2.121,165.0,499.0
2015-01-14,Guadalajara,Mexico,-103.35,20.6667,[-103.85 20.1667 -102.85 21.1667],1.493,0.859,2.512,1.965,1.79,0.994,2.811,2.138,185.0,520.0
2015-01-15,Guadalajara,Mexico,-103.35,20.6667,[-103.85 20.1667 -102.85 21.1667],1.526,0.862,2.755,2.009,1.792,1.063,2.867,2.183,163.0,510.0
2015-01-16,Guadalajara,Mexico,-103.35,20.6667,[-103.85 20.1667 -102.85 21.1667],1.57,0.902,2.811,2.082,1.861,1.11,2.887,2.22,189.0,510.0
2015-01-17,Guadalajara,Mexico,-103.35,20.6667,[-103.85 20.1667 -102.85 21.1667],1.701,0.902,2.87,2.124,1.933,1.089,2.912,2.232,176.0,513.0
2015-01-18,Guadalajara,Mexico,-103.35,20.6667,[-103.85 20.1667 -102.85 21.1667],1.701,0.902,2.87,2.124,1.892,1.051,2.889,2.202,176.0,495.0
2015-01-19,Guadalajara,Mexico,-103.35,20.6667,[-103.85 20.1667 -102.85 21.1667],2.026,1.117,3.833,2.462,1.919,1.078,2.997,2.237,149.0,514.0
2015-01-20,Guadalajara,Mexico,-103.35,20.6667,[-103.85 20.1667 -102.85 21.1667],1.806,0.899,3.205,2.199,1.889,1.064,2.999,2.19,176.0,494.0
2015-01-21,Guadalajara,Mexico,-103.35,20.6667,[-103.85 20.1667 -102.85 21.1667],1.711,0.89,3.205,2.177,1.83,0.988,2.884,2.116,164.0,524.0
2015-01-22,Guadalajara,Mexico,-103.35,20.6667,[-103.85 20.1667 -102.85 21.1667],1.619,0.853,3.062,2.059,1.79,0.909,2.859,2.083,150.0,505.0
2015-01-23,Guadalajara,Mexico,-103.35,20.6667,[-103.85 20.1667 -102.85 21.1667],1.692,0.88,2.894,2.036,1.802,0.93,2.898,2.075,183.0,512.0
2015-01-24,Guadalajara,Mexico,-103.35,20.6667,[-103.85 20.1667 -102.85 21.1667],1.692,0.88,2.894,2.036,1.854,0.958,2.852,2.104,183.0,543.0
2015-01-25,Guadalajara,Mexico,-103.35,20.6667,[-103.85 20.1667 -102.85 21.1667],1.692,0.88,2.894,2.036,1.807,0.967,2.82,2.065,183.0,527.0
2015-01-26,Guadalajara,Mexico,-103.35,20.6667,[-103.85 20.1667 -102.85 21.1667],1.692,0.853,2.894,2.033,1.842,0.971,2.862,2.09,164.0,545.0
2015-01-27,Guadalajara,Mexico,-103.35,20.6667,[-103.85 20.1667 -102.85 21.1667],1.692,0.853,2.894,2.033,1.763,0.98,2.888,2.079,164.0,513.0
2015-01-28,Guadalajara,Mexico,-103.35,20.6667,[-103.85 20.1667 -102.85 21.1667],1.538,0.85,2.639,1.9,1.705,0.964,2.77,2.027,139.0,532.0
2015-01-29,Guadalajara,Mexico,-103.35,20.6667,[-103.85 20.1667 -102.85 21.1667],1.538,0.847,2.632,1.817,1.739,0.973,2.786,1.988,113.0,515.0
2015-01-30,Guadalajara,Mexico,-103.35,20.6667,[-103.85 20.1667 -102.85 21.1667],1.538,0.847,2.664,1.961,1.675,0.922,2.774,1.945,132.0,535.0
2015-01-31,Guadalajara,Mexico,-103.35,20.6667,[-103.85 20.1667 -102.85 21.1667],1.619,0.847,2.639,1.975,1.598,0.887,2.768,1.928,125.0,525.0
2015-02-01,Guadalajara,Mexico,-103.35,20.6667,[-103.85 20.1667 -102.85 21.1667],1.621,0.847,2.836,2.002,1.59,0.857,2.785,1.937,152.0,527.0
2015-02-02,Guadalajara,Mexico,-103.35,20.6667,[-103.85 20.1667 -102.85 21.1667],1.621,0.847,2.836,2.002,1.587,0.874,2.774,1.933,152.0,529.0
2015-02-03,Guadalajara,Mexico,-103.35,20.6667,[-103.85 20.1667 -102.85 21.1667],1.619,0.847,2.875,1.989,1.654,0.913,2.716,1.926,175.0,510.0
2015-02-04,Guadalajara,Mexico,-103.35,20.6667,[-103.85 20.1667 -102.85 21.1667],2.011,0.85,3.09,2.201,1.693,0.908,2.729,1.943,148.0,529.0
2015-02-05,Guadalajara,Mexico,-103.35,20.6667,[-103.85 20.1667 -102.85 21.1667],1.883,0.847,3.056,2.166,1.694,0.909,2.723,1.987,149.0,508.0
2015-02-06,Guadalajara,Mexico,-103.35,20.6667,[-103.85 20.1667 -102.85 21.1667],2.011,0.847,3.107,2.231,1.687,0.903,2.716,1.959,133.0,536.0
2015-02-07,Guadalajara,Mexico,-103.35,20.6667,[-103.85 20.1667 -102.85 21.1667],2.011,0.847,3.245,2.314,1.651,0.894,2.721,1.925,100.0,517.0
2015-02-08,Guadalajara,Mexico,-103.35,20.6667,[-103.85 20.1667 -102.85 21.1667],2.011,0.847,3.245,2.314,1.649,0.912,2.686,1.946,100.0,524.0
2015-02-09,Guadalajara,Mexico,-103.35,20.6667,[-103.85 20.1667 -102.85 21.1667],2.011,0.847,3.245,2.314,1.69,0.904,2.667,1.952,100.0,528.0
2015-02-10,Guadalajara,Mexico,-103.35,20.6667,[-103.85 20.1667 -102.85 21.1667],2.011,0.847,3.245,2.314,1.668,0.919,2.617,1.916,100.0,488.0
2015-02-11,Guadalajara,Mexico,-103.35,20.6667,[-103.85 20.1667 -102.85 21.1667],2.011,0.847,3.245,2.314,1.668,0.909,2.619,1.892,100.0,508.0
2015-02-12,Guadalajara,Mexico,-103.35,20.6667,[-103.85 20.1667 -102.85 21.1667],1.883,0.809,3.317,2.254,1.66,0.896,2.679,1.917,119.0,479.0
2015-02-13,Guadalajara,Mexico,-103.35,20.6667,[-103.85 20.1667 -102.85 21.1667],1.883,0.844,3.92,2.367,1.718,0.975,2.778,1.969,111.0,501.0
2015-02-14,Guadalajara,Mexico,-103.35,20.6667,[-103.85 20.1667 -102.85 21.1667],1.668,0.728,3.381,2.017,1.685,0.952,2.781,1.957,116.0,488.0
2015-02-15,Guadalajara,Mexico,-103.35,20.6667,[-103.85 20.1667 -102.85 21.1667],1.245,0.51,3.381,1.753,1.612,0.889,2.673,1.862,132.0,507.0
2015-02-16,Guadalajara,Mexico,-103.35,20.6667,[-103.85 20.1667 -102.85 21.1667],1.291,0.618,3.381,1.787,1.596,0.921,2.653,1.856,123.0,500.0
2015-02-17,Guadalajara,Mexico,-103.35,20.6667,[-103.85 20.1667 -102.85 21.1667],1.226,0.51,3.176,1.674,1.614,0.864,2.677,1.857,150.0,502.0
2015-02-18,Guadalajara,Mexico,-103.35,20.6667,[-103.85 20.1667 -102.85 21.1667],1.22,0.51,3.176,1.638,1.629,0.865,2.623,1.868,127.0,504.0
2015-02-19,Guadalajara,Mexico,-103.35,20.6667,[-103.85 20.1667 -102.85 21.1667],1.226,0.569,2.773,1.608,1.647,0.912,2.682,1.9,150.0,486.0
2015-02-20,Guadalajara,Mexico,-103.35,20.6667,[-103.85 20.1667 -102.85 21.1667],1.304,0.542,2.826,1.626,1.667,0.921,2.747,1.899,149.0,505.0
2015-02-21,Guadalajara,Mexico,-103.35,20.6667,[-103.85 20.1667 -102.85 21.1667],1.668,0.728,3.123,1.914,1.742,0.974,2.835,1.969,176.0,488.0
2015-02-22,Guadalajara,Mexico,-103.35,20.6667,[-103.85 20.1667 -102.85 21.1667],1.668,0.728,3.123,1.914,1.807,1.014,2.953,2.034,176.0,519.0
2015-02-23,Guadalajara,Mexico,-103.35,20.6667,[-103.85 20.1667 -102.85 21.1667],1.648,0.731,2.902,1.869,1.796,0.993,2.82,1.999,194.0,501.0
2015-02-24,Guadalajara,Mexico,-103.35,20.6667,[-103.85 20.1667 -102.85 21.1667],1.668,0.746,2.895,1.898,1.844,0.981,2.896,2.005,226.0,509.0
2015-02-25,Guadalajara,Mexico,-103.35,20.6667,[-103.85 20.1667 -102.85 21.1667],1.668,0.746,2.895,1.898,1.856,0.963,2.851,1.989,226.0,538.0
2015-02-26,Guadalajara,Mexico,-103.35,20.6667,[-103.85 20.1667 -102.85 21.1667],1.668,0.746,2.895,1.907,1.83,0.979,2.845,1.978,228.0,524.0
2015-02-27,Guadalajara,Mexico,-103.35,20.6667,[-103.85 20.1667 -102.85 21.1667],1.673,0.746,2.895,1.894,1.869,1.008,2.898,2.027,209.0,545.0
2015-02-28,Guadalajara,Mexico,-103.35,20.6667,[-103.85 20.1667 -102.85 21.1667],1.689,0.746,2.849,1.893,1.828,0.967,2.84,2.001,228.0,515.0
2015-03-01,Guadalajara,Mexico,-103.35,20.6667,[-103.85 20.1667 -102.85 21.1667],1.736,0.917,2.741,1.935,1.802,0.991,2.766,1.981,201.0,532.0
2015-03-02,Guadalajara,Mexico,-103.35,20.6667,[-103.85 20.1667 -102.85 21.1667],1.741,1.018,2.741,2.029,1.812,1.041,2.812,2.04,166.0,519.0
2015-03-03,Guadalajara,Mexico,-103.35,20.6667,[-103.85 20.1667 -102.85 21.1667],1.736,1.018,2.735,1.985,1.813,1.041,2.784,2.024,151.0,537.0
2015-03-04,Guadalajara,Mexico,-103.35,20.6667,[-103.85 20.1667 -102.85 21.1667],1.853,1.195,2.741,2.13,1.85,1.126,2.787,2.055,124.0,527.0
2015-03-05,Guadalajara,Mexico,-103.35,20.6667,[-103.85 20.1667 -102.85 21.1667],1.86,1.195,2.849,2.171,1.86,1.128,2.798,2.049,151.0,531.0
2015-03-06,Guadalajara,Mexico,-103.35,20.6667,[-103.85 20.1667 -102.85 21.1667],2.009,1.291,2.938,2.284,1.875,1.129,2.72,2.052,146.0,534.0
2015-03-07,Guadalajara,Mexico,-103.35,20.6667,[-103.85 20.1667 -102.85 21.1667],2.0,1.291,2.931,2.281,1.879,1.139,2.684,2.038,147.0,516.0
2015-03-08,Guadalajara,Mexico,-103.35,20.6667,[-103.85 20.1667 -102.85 21.1667],1.798,1.135,2.557,2.042,1.839,1.109,2.624,1.985,120.0,533.0
2015-03-09,Guadalajara,Mexico,-103.35,20.6667,[-103.85 20.1667 -102.85 21.1667],1.798,1.135,2.557,2.042,1.787,1.099,2.494,1.928,120.0,512.0
2015-03-10,Guadalajara,Mexico,-103.35,20.6667,[-103.85 20.1667 -102.85 21.1667],1.984,1.181,2.741,2.228,1.836,1.083,2.535,1.947,102.0,542.0
2015-03-11,Guadalajara,Mexico,-103.35,20.6667,[-103.85 20.1667 -102.85 21.1667],1.628,1.033,2.557,1.946,1.744,1.032,2.434,1.876,86.0,523.0
2015-03-12,Guadalajara,Mexico,-103.35,20.6667,[-103.85 20.1667 -102.85 21.1667],1.509,0.927,2.358,1.841,1.625,1.004,2.408,1.829,111.0,532.0
2015-03-13,Guadalajara,Mexico,-103.35,20.6667,[-103.85 20.1667 -102.85 21.1667],1.509,0.896,2.358,1.812,1.692,0.988,2.434,1.86,109.0,534.0
2015-03-14,Guadalajara,Mexico,-103.35,20.6667,[-103.85 20.1667 -102.85 21.1667],1.509,0.896,2.358,1.812,1.619,0.945,2.373,1.797,109.0,491.0
2015-03-15,Guadalajara,Mexico,-103.35,20.6667,[-103.85 20.1667 -102.85 21.1667],1.356,0.896,2.312,1.793,1.606,0.942,2.382,1.778,105.0,512.0
2015-03-16,Guadalajara,Mexico,-103.35,20.6667,[-103.85 20.1667 -102.85 21.1667],1.418,0.909,2.358,1.712,1.678,0.927,2.438,1.793,123.0,483.0
2015-03-17,Guadalajara,Mexico,-103.35,20.6667,[-103.85 20.1667 -102.85 21.1667],1.418,0.909,2.358,1.712,1.627,0.921,2.454,1.784,123.0,503.0
2015-03-18,Guadalajara,Mexico,-103.35,20.6667,[-103.85 20.1667 -102.85 21.1667],1.344,0.862,2.151,1.581,1.664,0.911,2.45,1.773,133.0,489.0
2015-03-19,Guadalajara,Mexico,-103.35,20.6667,[-103.85 20.1667 -102.85 21.1667],1.418,0.867,2.208,1.622,1.624,0.917,2.403,1.732,169.0,512.0
2015-03-20,Guadalajara,Mexico,-103.35,20.6667,[-103.85 20.1667 -102.85 21.1667],1.477,0.909,2.358,1.664,1.615,0.914,2.386,1.726,158.0,506.0
2015-03-21,Guadalajara,Mexico,-103.35,20.6667,[-103.85 20.1667 -102.85 21.1667],1.521,0.955,2.564,1.742,1.542,0.875,2.329,1.669,167.0,506.0
2015-03-22,Guadalajara,Mexico,-103.35,20.6667,[-103.85 20.1667 -102.85 21.1667],1.517,0.945,2.418,1.709,1.542,0.861,2.312,1.664,193.0,512.0
2015-03-23,Guadalajara,Mexico,-103.35,20.6667,[-103.85 20.1667 -102.85 21.1667],1.55,0.88,2.564,1.706,1.552,0.858,2.415,1.671,217.0,493.0
2015-03-24,Guadalajara,Mexico,-103.35,20.6667,[-103.85 20.1667 -102.85 21.1667],1.55,0.88,2.564,1.706,1.562,0.868,2.376,1.672,217.0,511.0
2015-03-25,Guadalajara,Mexico,-103.35,20.6667,[-103.85 20.1667 -102.85 21.1667],1.418,0.8,2.304,1.603,1.544,0.824,2.328,1.643,246.0,493.0
2015-03-26,Guadalajara,Mexico,-103.35,20.6667,[-103.85 20.1667 -102.85 21.1667],1.477,0.8,2.418,1.618,1.553,0.864,2.39,1.677,243.0,524.0
2015-03-27,Guadalajara,Mexico,-103.35,20.6667,[-103.85 20.1667 -102.85 21.1667],1.56,0.8,2.418,1.645,1.617,0.878,2.409,1.712,219.0,506.0
2015-03-28,Guadalajara,Mexico,-103.35,20.6667,[-103.85 20.1667 -102.85 21.1667],1.577,0.805,2.447,1.676,1.614,0.861,2.401,1.698,246.0,517.0
2015-03-29,Guadalajara,Mexico,-103.35,20.6667,[-103.85 20.1667 -102.85 21.1667],1.574,0.805,2.425,1.666,1.611,0.867,2.406,1.697,258.0,547.0
2015-03-30,Guadalajara,Mexico,-103.35,20.6667,[-103.85 20.1667 -102.85 21.1667],1.556,0.785,2.447,1.633,1.65,0.868,2.417,1.724,267.0,534.0
2015-03-31,Guadalajara,Mexico,-103.35,20.6667,[-103.85 20.1667 -102.85 21.1667],1.569,0.785,2.497,1.668,1.679,0.874,2.496,1.756,261.0,556.0
2015-04-01,Guadalajara,Mexico,-103.35,20.6667,[-103.85 20.1667 -102.85 21.1667],1.55,0.8,2.497,1.672,1.701,0.921,2.506,1.791,277.0,527.0
2015-04-02,Guadalajara,Mexico,-103.35,20.6667,[-103.85 20.1667 -102.85 21.1667],1.56,0.805,2.56,1.728,1.696,0.864,2.494,1.787,264.0,546.0
2015-04-03,Guadalajara,Mexico,-103.35,20.6667,[-103.85 20.1667 -102.85 21.1667],1.448,0.785,2.497,1.64,1.688,0.857,2.501,1.785,240.0,531.0
2015-04-04,Guadalajara,Mexico,-103.35,20.6667,[-103.85 20.1667 -102.85 21.1667],1.397,0.69,2.363,1.535,1.638,0.82,2.482,1.758,252.0,547.0
2015-04-05,Guadalajara,Mexico,-103.35,20.6667,[-103.85 20.1667 -102.85 21.1667],1.373,0.624,2.081,1.44,1.737,0.845,2.535,1.789,228.0,542.0
2015-04-06,Guadalajara,Mexico,-103.35,20.6667,[-103.85 20.1667 -102.85 21.1667],1.373,0.624,2.089,1.455,1.725,0.851,2.586,1.803,205.0,541.0
2015-04-07,Guadalajara,Mexico,-103.35,20.6667,[-103.85 20.1667 -102.85 21.1667],1.373,0.624,2.081,1.472,1.708,0.852,2.562,1.805,199.0,549.0
2015-04-08,Guadalajara,Mexico,-103.35,20.6667,[-103.85 20.1667 -102.85 21.1667],1.397,0.716,2.388,1.563,1.721,0.901,2.612,1.818,222.0,531.0
2015-04-09,Guadalajara,Mexico,-103.35,20.6667,[-103.85 20.1667 -102.85 21.1667],1.487,0.785,2.536,1.658,1.718,0.897,2.632,1.833,193.0,548.0
2015-04-10,Guadalajara,Mexico,-103.35,20.6667,[-103.85 20.1667 -102.85 21.1667],1.397,0.794,2.452,1.599,1.689,0.905,2.63,1.816,208.0,529.0
2015-04-11,Guadalajara,Mexico,-103.35,20.6667,[-103.85 20.1667 -102.85 21.1667],1.397,0.777,2.442,1.565,1.7,0.906,2.637,1.807,220.0,559.0
2015-04-12,Guadalajara,Mexico,-103.35,20.6667,[-103.85 20.1667 -102.85 21.1667],1.374,0.77,2.31,1.493,1.645,0.93,2.602,1.792,212.0,539.0
2015-04-13,Guadalajara,Mexico,-103.35,20.6667,[-103.85 20.1667 -102.85 21.1667],1.346,0.71,2.31,1.486,1.686,0.931,2.66,1.826,231.0,547.0
2015-04-14,Guadalajara,Mexico,-103.35,20.6667,[-103.85 20.1667 -102.85 21.1667],1.392,0.816,2.31,1.542,1.671,0.941,2.618,1.814,227.0,549.0
2015-04-15,Guadalajara,Mexico,-103.35,20.6667,[-103.85 20.1667 -102.85 21.1667],1.384,0.78,2.31,1.522,1.635,0.923,2.606,1.777,215.0,505.0
2015-04-16,Guadalajara,Mexico,-103.35,20.6667,[-103.85 20.1667 -102.85 21.1667],1.372,0.679,2.263,1.479,1.594,0.852,2.575,1.724,208.0,525.0
2015-04-17,Guadalajara,Mexico,-103.35,20.6667,[-103.85 20.1667 -102.85 21.1667],1.359,0.61,2.306,1.472,1.63,0.857,2.576,1.732,215.0,497.0
2015-04-18,Guadalajara,Mexico,-103.35,20.6667,[-103.85 20.1667 -102.85 21.1667],1.38,0.78,2.31,1.539,1.657,0.903,2.525,1.758,203.0,516.0
2015-04-19,Guadalajara,Mexico,-103.35,20.6667,[-103.85 20.1667 -102.85 21.1667],1.392,0.819,2.263,1.548,1.66,0.928,2.551,1.766,182.0,499.0
2015-04-20,Guadalajara,Mexico,-103.35,20.6667,[-103.85 20.1667 -102.85 21.1667],1.384,0.818,2.276,1.529,1.671,0.959,2.534,1.765,203.0,515.0
2015-04-21,Guadalajara,Mexico,-103.35,20.6667,[-103.85 20.1667 -102.85 21.1667],1.384,0.819,2.306,1.522,1.646,0.908,2.462,1.727,206.0,505.0
2015-04-22,Guadalajara,Mexico,-103.35,20.6667,[-103.85 20.1667 -102.85 21.1667],1.372,0.806,2.112,1.482,1.707,0.954,2.527,1.793,192.0,502.0
2015-04-23,Guadalajara,Mexico,-103.35,20.6667,[-103.85 20.1667 -102.85 21.1667],1.199,0.679,1.897,1.341,1.685,0.922,2.507,1.776,189.0,505.0
2015-04-24,Guadalajara,Mexico,-103.35,20.6667,[-103.85 20.1667 -102.85 21.1667],1.189,0.533,1.897,1.289,1.775,0.969,2.653,1.853,211.0,485.0
2015-04-25,Guadalajara,Mexico,-103.35,20.6667,[-103.85 20.1667 -102.85 21.1667],1.21,0.477,1.991,1.264,1.898,1.03,2.77,1.936,183.0,502.0
2015-04-26,Guadalajara,Mexico,-103.35,20.6667,[-103.85 20.1667 -102.85 21.1667],1.403,0.753,2.126,1.422,1.938,1.099,2.824,1.986,195.0,480.0
2015-04-27,Guadalajara,Mexico,-103.35,20.6667,[-103.85 20.1667 -102.85 21.1667],1.454,0.753,2.195,1.446,1.986,1.116,2.881,2.031,184.0,512.0
2015-04-28,Guadalajara,Mexico,-103.35,20.6667,[-103.85 20.1667 -102.85 21.1667],1.482,0.763,2.195,1.504,1.975,1.111,2.854,2.008,170.0,494.0
2015-04-29,Guadalajara,Mexico,-103.35,20.6667,[-103.85 20.1667 -102.85 21.1667],1.514,0.753,2.223,1.464,2.008,1.128,2.93,2.046,174.0,502.0
2015-04-30,Guadalajara,Mexico,-103.35,20.6667,[-103.85 20.1667 -102.85 21.1667],1.621,0.757,2.229,1.527,2.08,1.195,2.932,2.099,190.0,533.0
2015-05-01,Guadalajara,Mexico,-103.35,20.6667,[-103.85 20.1667 -102.85 21.1667],1.687,0.763,2.307,1.613,2.048,1.227,2.948,2.136,199.0,519.0
2015-05-02,Guadalajara,Mexico,-103.35,20.6667,[-103.85 20.1667 -102.85 21.1667],1.695,0.795,2.307,1.66,2.075,1.269,2.984,2.181,210.0,536.0
2015-05-03,Guadalajara,Mexico,-103.35,20.6667,[-103.85 20.1667 -102.85 21.1667],1.695,0.795,2.307,1.648,2.147,1.275,2.971,2.191,221.0,508.0
2015-05-04,Guadalajara,Mexico,-103.35,20.6667,[-103.85 20.1667 -102.85 21.1667],1.689,0.769,2.324,1.663,2.163,1.346,2.985,2.224,214.0,529.0
2015-05-05,Guadalajara,Mexico,-103.35,20.6667,[-103.85 20.1667 -102.85 21.1667],1.761,0.927,2.473,1.747,2.173,1.361,3.0,2.232,199.0,511.0
2015-05-06,Guadalajara,Mexico,-103.35,20.6667,[-103.85 20.1667 -102.85 21.1667],1.796,0.927,2.473,1.752,2.226,1.408,3.043,2.292,207.0,531.0
2015-05-07,Guadalajara,Mexico,-103.35,20.6667,[-103.85 20.1667 -102.85 21.1667],1.806,0.966,2.48,1.803,2.196,1.38,2.973,2.252,213.0,519.0
2015-05-08,Guadalajara,Mexico,-103.35,20.6667,[-103.85 20.1667 -102.85 21.1667],1.856,1.111,2.578,1.89,2.211,1.447,3.001,2.288,221.0,520.0
2015-05-09,Guadalajara,Mexico,-103.35,20.6667,[-103.85 20.1667 -102.85 21.1667],1.972,1.201,2.627,1.993,2.211,1.405,2.928,2.26,215.0,525.0
2015-05-10,Guadalajara,Mexico,-103.35,20.6667,[-103.85 20.1667 -102.85 21.1667],1.873,1.112,2.627,1.958,2.156,1.395,2.9,2.218,238.0,505.0
2015-05-11,Guadalajara,Mexico,-103.35,20.6667,[-103.85 20.1667 -102.85 21.1667],1.972,1.07,2.903,2.028,2.172,1.386,2.915,2.216,213.0,526.0
2015-05-12,Guadalajara,Mexico,-103.35,20.6667,[-103.85 20.1667 -102.85 21.1667],1.969,1.153,2.951,2.074,2.165,1.423,2.916,2.216,217.0,503.0
2015-05-13,Guadalajara,Mexico,-103.35,20.6667,[-103.85 20.1667 -102.85 21.1667],2.0,1.153,2.95,2.089,2.213,1.447,2.937,2.244,208.0,534.0
2015-05-14,Guadalajara,Mexico,-103.35,20.6667,[-103.85 20.1667 -102.85 21.1667],2.047,1.272,3.058,2.204,2.213,1.469,2.94,2.277,201.0,514.0
2015-05-15,Guadalajara,Mexico,-103.35,20.6667,[-103.85 20.1667 -102.85 21.1667],2.114,1.278,3.2,2.258,2.253,1.515,3.003,2.312,217.0,523.0
2015-05-16,Guadalajara,Mexico,-103.35,20.6667,[-103.85 20.1667 -102.85 21.1667],2.076,1.285,3.229,2.262,2.226,1.504,3.055,2.321,211.0,526.0
2015-05-17,Guadalajara,Mexico,-103.35,20.6667,[-103.85 20.1667 -102.85 21.1667],2.151,1.285,3.229,2.252,2.178,1.458,3.022,2.281,193.0,486.0
2015-05-18,Guadalajara,Mexico,-103.35,20.6667,[-103.85 20.1667 -102.85 21.1667],2.173,1.457,3.27,2.315,2.219,1.507,3.065,2.315,199.0,504.0
2015-05-19,Guadalajara,Mexico,-103.35,20.6667,[-103.85 20.1667 -102.85 21.1667],2.062,1.177,3.235,2.248,2.197,1.482,3.096,2.326,218.0,476.0
2015-05-20,Guadalajara,Mexico,-103.35,20.6667,[-103.85 20.1667 -102.85 21.1667],2.0,1.156,3.378,2.261,2.228,1.481,3.123,2.365,209.0,500.0
2015-05-21,Guadalajara,Mexico,-103.35,20.6667,[-103.85 20.1667 -102.85 21.1667],2.053,1.272,3.11,2.247,2.246,1.486,3.093,2.364,213.0,486.0
2015-05-22,Guadalajara,Mexico,-103.35,20.6667,[-103.85 20.1667 -102.85 21.1667],2.062,1.285,3.132,2.262,2.288,1.524,3.134,2.396,231.0,508.0
2015-05-23,Guadalajara,Mexico,-103.35,20.6667,[-103.85 20.1667 -102.85 21.1667],2.062,1.272,3.11,2.25,2.252,1.497,3.104,2.381,203.0,499.0
2015-05-24,Guadalajara,Mexico,-103.35,20.6667,[-103.85 20.1667 -102.85 21.1667],2.0,1.161,3.109,2.191,2.244,1.485,3.131,2.383,209.0,501.0
2015-05-25,Guadalajara,Mexico,-103.35,20.6667,[-103.85 20.1667 -102.85 21.1667],2.062,1.285,3.11,2.253,2.275,1.522,3.187,2.423,193.0,506.0
2015-05-26,Guadalajara,Mexico,-103.35,20.6667,[-103.85 20.1667 -102.85 21.1667],2.053,1.347,3.11,2.243,2.292,1.543,3.213,2.441,215.0,486.0
2015-05-27,Guadalajara,Mexico,-103.35,20.6667,[-103.85 20.1667 -102.85 21.1667],2.147,1.285,3.11,2.237,2.313,1.532,3.24,2.462,203.0,505.0
2015-05-28,Guadalajara,Mexico,-103.35,20.6667,[-103.85 20.1667 -102.85 21.1667],1.907,1.163,2.864,2.115,2.269,1.516,3.188,2.451,209.0,484.0
2015-05-29,Guadalajara,Mexico,-103.35,20.6667,[-103.85 20.1667 -102.85 21.1667],1.806,1.156,2.742,2.015,2.205,1.517,3.139,2.413,192.0,514.0
2015-05-30,Guadalajara,Mexico,-103.35,20.6667,[-103.85 20.1667 -102.85 21.1667],1.734,1.133,2.644,1.933,2.177,1.479,3.084,2.384,160.0,494.0
2015-05-31,Guadalajara,Mexico,-103.35,20.6667,[-103.85 20.1667 -102.85 21.1667],1.699,1.098,2.558,1.852,2.172,1.474,3.031,2.367,165.0,501.0
2015-06-01,Guadalajara,Mexico,-103.35,20.6667,[-103.85 20.1667 -102.85 21.1667],1.651,1.048,2.506,1.814,2.194,1.506,3.069,2.388,176.0,532.0
2015-06-02,Guadalajara,Mexico,-103.35,20.6667,[-103.85 20.1667 -102.85 21.1667],1.699,1.053,2.558,1.816,2.197,1.532,3.051,2.367,177.0,517.0
2015-06-03,Guadalajara,Mexico,-103.35,20.6667,[-103.85 20.1667 -102.85 21.1667],1.714,1.11,2.526,1.824,2.199,1.541,3.015,2.355,169.0,536.0
2015-06-04,Guadalajara,Mexico,-103.35,20.6667,[-103.85 20.1667 -102.85 21.1667],1.699,1.161,2.462,1.825,2.151,1.502,2.936,2.298,182.0,506.0
2015-06-05,Guadalajara,Mexico,-103.35,20.6667,[-103.85 20.1667 -102.85 21.1667],1.506,1.031,2.291,1.701,2.135,1.489,2.956,2.328,163.0,525.0
2015-06-06,Guadalajara,Mexico,-103.35,20.6667,[-103.85 20.1667 -102.85 21.1667],1.6,1.114,2.27,1.682,2.147,1.468,3.004,2.298,156.0,510.0
2015-06-07,Guadalajara,Mexico,-103.35,20.6667,[-103.85 20.1667 -102.85 21.1667],1.6,1.112,2.27,1.693,2.197,1.527,3.043,2.32,187.0,532.0
2015-06-08,Guadalajara,Mexico,-103.35,20.6667,[-103.85 20.1667 -102.85 21.1667],1.607,1.207,2.279,1.745,2.144,1.453,2.927,2.265,170.0,523.0
2015-06-09,Guadalajara,Mexico,-103.35,20.6667,[-103.85 20.1667 -102.85 21.1667],1.607,1.153,2.277,1.717,2.132,1.407,2.793,2.212,168.0,525.0
2015-06-10,Guadalajara,Mexico,-103.35,20.6667,[-103.85 20.1667 -102.85 21.1667],1.592,1.11,2.266,1.661,2.074,1.353,2.75,2.163,146.0,530.0
2015-06-11,Guadalajara,Mexico,-103.35,20.6667,[-103.85 20.1667 -102.85 21.1667],1.6,1.11,2.279,1.75,2.02,1.304,2.73,2.125,169.0,513.0
2015-06-12,Guadalajara,Mexico,-103.35,20.6667,[-103.85 20.1667 -102.85 21.1667],1.664,1.162,2.33,1.842,2.021,1.301,2.745,2.152,155.0,531.0
2015-06-13,Guadalajara,Mexico,-103.35,20.6667,[-103.85 20.1667 -102.85 21.1667],1.664,1.162,2.33,1.842,2.033,1.291,2.791,2.165,155.0,513.0
2015-06-14,Guadalajara,Mexico,-103.35,20.6667,[-103.85 20.1667 -102.85 21.1667],1.664,1.162,2.33,1.817,1.896,1.246,2.672,2.084,160.0,542.0
2015-06-15,Guadalajara,Mexico,-103.35,20.6667,[-103.85 20.1667 -102.85 21.1667],1.778,1.293,2.387,1.897,1.934,1.271,2.676,2.084,153.0,523.0
2015-06-16,Guadalajara,Mexico,-103.35,20.6667,[-103.85 20.1667 -102.85 21.1667],1.907,1.304,2.462,1.941,1.914,1.29,2.686,2.06,168.0,530.0
2015-06-17,Guadalajara,Mexico,-103.35,20.6667,[-103.85 20.1667 -102.85 21.1667],1.907,1.293,2.387,1.921,1.921,1.272,2.617,2.029,166.0,536.0
2015-06-18,Guadalajara,Mexico,-103.35,20.6667,[-103.85 20.1667 -102.85 21.1667],1.907,1.36,2.407,1.929,1.932,1.292,2.64,2.03,155.0,495.0